Year,Month,Day,Hour,Minute,Value (Times are PST for temperature in C)
2008,12,23,00,00,-3.50
2008,12,23,00,01,-3.40
2008,12,23,00,02,-3.40
2008,12,23,00,03,-3.40
2008,12,23,00,04,-3.30
2008,12,23,00,05,-3.30
2008,12,23,00,06,-3.30
2008,12,23,00,07,-3.40
2008,12,23,00,08,-3.40
2008,12,23,00,09,-3.50
2008,12,23,00,10,-3.50
2008,12,23,00,11,-3.60
2008,12,23,00,12,-3.60
2008,12,23,00,13,-3.70
2008,12,23,00,14,-3.50
2008,12,23,00,15,-3.40
2008,12,23,00,16,-3.50
2008,12,23,00,17,-3.60
2008,12,23,00,18,-3.70
2008,12,23,00,19,-3.70
2008,12,23,00,20,-3.80
2008,12,23,00,21,-3.80
2008,12,23,00,22,-3.90
2008,12,23,00,23,-3.90
2008,12,23,00,24,-3.90
2008,12,23,00,25,-3.90
2008,12,23,00,26,-3.90
2008,12,23,00,27,-3.80
2008,12,23,00,28,-3.80
2008,12,23,00,29,-3.80
2008,12,23,00,30,-3.80
2008,12,23,00,31,-3.80
2008,12,23,00,32,-3.90
2008,12,23,00,33,-4.00
2008,12,23,00,34,-4.00
2008,12,23,00,35,-4.10
2008,12,23,00,36,-4.10
2008,12,23,00,37,-4.20
2008,12,23,00,38,-4.20
2008,12,23,00,39,-4.20
2008,12,23,00,40,-4.30
2008,12,23,00,41,-4.30
2008,12,23,00,42,-4.30
2008,12,23,00,43,-4.30
2008,12,23,00,44,-4.20
2008,12,23,00,45,-4.20
2008,12,23,00,46,-4.20
2008,12,23,00,47,-4.10
2008,12,23,00,48,-4.10
2008,12,23,00,49,-4.10
2008,12,23,00,50,-4.10
2008,12,23,00,51,-4.10
2008,12,23,00,52,-4.00
2008,12,23,00,53,-4.00
2008,12,23,00,54,-4.00
2008,12,23,00,55,-4.00
2008,12,23,00,56,-3.90
2008,12,23,00,57,-3.90
2008,12,23,00,58,-3.90
2008,12,23,00,59,-3.90
2008,12,23,01,00,-3.90
2008,12,23,01,01,-4.00
2008,12,23,01,02,-4.00
2008,12,23,01,03,-4.00
2008,12,23,01,04,-4.00
2008,12,23,01,05,-4.00
2008,12,23,01,06,-4.00
2008,12,23,01,07,-4.00
2008,12,23,01,08,-4.00
2008,12,23,01,09,-4.00
2008,12,23,01,10,-4.00
2008,12,23,01,11,-4.10
2008,12,23,01,12,-4.10
2008,12,23,01,13,-4.10
2008,12,23,01,14,-4.10
2008,12,23,01,15,-4.10
2008,12,23,01,16,-4.10
2008,12,23,01,17,-4.10
2008,12,23,01,18,-4.10
2008,12,23,01,19,-4.10
2008,12,23,01,20,-4.20
2008,12,23,01,21,-4.20
2008,12,23,01,22,-4.20
2008,12,23,01,23,-4.20
2008,12,23,01,24,-4.20
2008,12,23,01,25,-4.30
2008,12,23,01,26,-4.30
2008,12,23,01,27,-4.30
2008,12,23,01,28,-4.30
2008,12,23,01,29,-4.30
2008,12,23,01,30,-4.30
2008,12,23,01,31,-4.30
2008,12,23,01,32,-4.30
2008,12,23,01,33,-4.30
2008,12,23,01,34,-4.40
2008,12,23,01,35,-4.40
2008,12,23,01,36,-4.40
2008,12,23,01,37,-4.50
2008,12,23,01,38,-4.50
2008,12,23,01,39,-4.50
2008,12,23,01,40,-4.60
2008,12,23,01,41,-4.60
2008,12,23,01,42,-4.60
2008,12,23,01,43,-4.70
2008,12,23,01,44,-4.70
2008,12,23,01,45,-4.70
2008,12,23,01,46,-4.70
2008,12,23,01,47,-4.70
2008,12,23,01,48,-4.70
2008,12,23,01,49,-4.70
2008,12,23,01,50,-4.80
2008,12,23,01,51,-4.80
2008,12,23,01,52,-4.80
2008,12,23,01,53,-4.80
2008,12,23,01,54,-4.80
2008,12,23,01,55,-4.90
2008,12,23,01,56,-4.90
2008,12,23,01,57,-4.90
2008,12,23,01,58,-5.00
2008,12,23,01,59,-5.00
2008,12,23,02,00,-5.10
2008,12,23,02,01,-5.10
2008,12,23,02,02,-5.10
2008,12,23,02,03,-5.10
2008,12,23,02,04,-5.20
2008,12,23,02,05,-5.20
2008,12,23,02,06,-5.20
2008,12,23,02,07,-5.20
2008,12,23,02,08,-5.20
2008,12,23,02,09,-5.20
2008,12,23,02,10,-5.20
2008,12,23,02,11,-5.20
2008,12,23,02,12,-5.20
2008,12,23,02,13,-5.20
2008,12,23,02,14,-5.20
2008,12,23,02,15,-5.20
2008,12,23,02,16,-5.10
2008,12,23,02,17,-5.00
2008,12,23,02,18,-5.00
2008,12,23,02,19,-4.90
2008,12,23,02,20,-4.90
2008,12,23,02,21,-4.90
2008,12,23,02,22,-4.90
2008,12,23,02,23,-4.90
2008,12,23,02,24,-4.90
2008,12,23,02,25,-4.90
2008,12,23,02,26,-4.90
2008,12,23,02,27,-4.70
2008,12,23,02,28,-4.60
2008,12,23,02,29,-4.60
2008,12,23,02,30,-4.50
2008,12,23,02,31,-4.50
2008,12,23,02,32,-4.40
2008,12,23,02,33,-4.40
2008,12,23,02,34,-4.40
2008,12,23,02,35,-4.30
2008,12,23,02,36,-4.30
2008,12,23,02,37,-4.20
2008,12,23,02,38,-4.10
2008,12,23,02,39,-4.10
2008,12,23,02,40,-4.00
2008,12,23,02,41,-3.90
2008,12,23,02,42,-3.90
2008,12,23,02,43,-3.90
2008,12,23,02,44,-3.90
2008,12,23,02,45,-3.90
2008,12,23,02,46,-3.90
2008,12,23,02,47,-4.00
2008,12,23,02,48,-4.00
2008,12,23,02,49,-4.00
2008,12,23,02,50,-4.00
2008,12,23,02,51,-4.10
2008,12,23,02,52,-4.10
2008,12,23,02,53,-4.10
2008,12,23,02,54,-4.00
2008,12,23,02,55,-4.00
2008,12,23,02,56,-3.90
2008,12,23,02,57,-3.90
2008,12,23,02,58,-3.80
2008,12,23,02,59,-3.80
2008,12,23,03,00,-3.70
2008,12,23,03,01,-3.70
2008,12,23,03,02,-3.70
2008,12,23,03,03,-3.70
2008,12,23,03,04,-3.70
2008,12,23,03,05,-3.70
2008,12,23,03,06,-3.80
2008,12,23,03,07,-3.80
2008,12,23,03,08,-3.70
2008,12,23,03,09,-3.70
2008,12,23,03,10,-3.60
2008,12,23,03,11,-3.60
2008,12,23,03,12,-3.60
2008,12,23,03,13,-3.60
2008,12,23,03,14,-3.60
2008,12,23,03,15,-3.60
2008,12,23,03,16,-3.60
2008,12,23,03,17,-3.60
2008,12,23,03,18,-3.60
2008,12,23,03,19,-3.60
2008,12,23,03,20,-3.60
2008,12,23,03,21,-3.60
2008,12,23,03,22,-3.60
2008,12,23,03,23,-3.60
2008,12,23,03,24,-3.60
2008,12,23,03,25,-3.50
2008,12,23,03,26,-3.50
2008,12,23,03,27,-3.50
2008,12,23,03,28,-3.50
2008,12,23,03,29,-3.50
2008,12,23,03,30,-3.40
2008,12,23,03,31,-3.40
2008,12,23,03,32,-3.30
2008,12,23,03,33,-3.30
2008,12,23,03,34,-3.30
2008,12,23,03,35,-3.30
2008,12,23,03,36,-3.30
2008,12,23,03,37,-3.30
2008,12,23,03,38,-3.40
2008,12,23,03,39,-3.40
2008,12,23,03,40,-3.40
2008,12,23,03,41,-3.40
2008,12,23,03,42,-3.50
2008,12,23,03,43,-3.50
2008,12,23,03,44,-3.60
2008,12,23,03,45,-3.60
2008,12,23,03,46,-3.70
2008,12,23,03,47,-3.70
2008,12,23,03,48,-3.80
2008,12,23,03,49,-3.80
2008,12,23,03,50,-3.90
2008,12,23,03,51,-3.90
2008,12,23,03,52,-3.90
2008,12,23,03,53,-3.90
2008,12,23,03,54,-4.00
2008,12,23,03,55,-4.00
2008,12,23,03,56,-4.10
2008,12,23,03,57,-4.10
2008,12,23,03,58,-4.10
2008,12,23,03,59,-4.10
2008,12,23,04,00,-4.10
2008,12,23,04,01,-4.20
2008,12,23,04,02,-4.20
2008,12,23,04,03,-4.20
2008,12,23,04,04,-4.20
2008,12,23,04,05,-4.20
2008,12,23,04,06,-4.20
2008,12,23,04,07,-4.10
2008,12,23,04,08,-4.10
2008,12,23,04,09,-4.10
2008,12,23,04,10,-4.00
2008,12,23,04,11,-4.00
2008,12,23,04,12,-4.00
2008,12,23,04,13,-4.00
2008,12,23,04,14,-4.00
2008,12,23,04,15,-3.90
2008,12,23,04,16,-3.90
2008,12,23,04,17,-3.90
2008,12,23,04,18,-4.00
2008,12,23,04,19,-3.90
2008,12,23,04,20,-3.90
2008,12,23,04,21,-3.90
2008,12,23,04,22,-3.90
2008,12,23,04,23,-3.80
2008,12,23,04,24,-3.80
2008,12,23,04,25,-3.80
2008,12,23,04,26,-3.70
2008,12,23,04,27,-3.70
2008,12,23,04,28,-3.70
2008,12,23,04,29,-3.60
2008,12,23,04,30,-3.60
2008,12,23,04,31,-3.50
2008,12,23,04,32,-3.50
2008,12,23,04,33,-3.50
2008,12,23,04,34,-3.40
2008,12,23,04,35,-3.40
2008,12,23,04,36,-3.40
2008,12,23,04,37,-3.40
2008,12,23,04,38,-3.40
2008,12,23,04,39,-3.40
2008,12,23,04,40,-3.30
2008,12,23,04,41,-3.30
2008,12,23,04,42,-3.30
2008,12,23,04,43,-3.30
2008,12,23,04,44,-3.30
2008,12,23,04,45,-3.30
2008,12,23,04,46,-3.40
2008,12,23,04,47,-3.40
2008,12,23,04,48,-3.40
2008,12,23,04,49,-3.50
2008,12,23,04,50,-3.50
2008,12,23,04,51,-3.50
2008,12,23,04,52,-3.60
2008,12,23,04,53,-3.60
2008,12,23,04,54,-3.60
2008,12,23,04,55,-3.60
2008,12,23,04,56,-3.60
2008,12,23,04,57,-3.60
2008,12,23,04,58,-3.70
2008,12,23,04,59,-3.70
2008,12,23,05,00,-3.70
2008,12,23,05,01,-3.70
2008,12,23,05,02,-3.80
2008,12,23,05,03,-3.80
2008,12,23,05,04,-3.80
2008,12,23,05,05,-3.80
2008,12,23,05,06,-3.80
2008,12,23,05,07,-3.80
2008,12,23,05,08,-3.80
2008,12,23,05,09,-3.80
2008,12,23,05,10,-3.80
2008,12,23,05,11,-3.80
2008,12,23,05,12,-3.80
2008,12,23,05,13,-3.80
2008,12,23,05,14,-3.80
2008,12,23,05,15,-3.80
2008,12,23,05,16,-3.80
2008,12,23,05,17,-3.80
2008,12,23,05,18,-3.80
2008,12,23,05,19,-3.80
2008,12,23,05,20,-3.90
2008,12,23,05,21,-3.90
2008,12,23,05,22,-3.90
2008,12,23,05,23,-3.90
2008,12,23,05,24,-3.90
2008,12,23,05,25,-3.90
2008,12,23,05,26,-3.90
2008,12,23,05,27,-3.80
2008,12,23,05,28,-3.80
2008,12,23,05,29,-3.80
2008,12,23,05,30,-3.80
2008,12,23,05,31,-3.80
2008,12,23,05,32,-3.80
2008,12,23,05,33,-3.80
2008,12,23,05,34,-3.80
2008,12,23,05,35,-3.70
2008,12,23,05,36,-3.70
2008,12,23,05,37,-3.70
2008,12,23,05,38,-3.70
2008,12,23,05,39,-3.60
2008,12,23,05,40,-3.60
2008,12,23,05,41,-3.60
2008,12,23,05,42,-3.60
2008,12,23,05,43,-3.60
2008,12,23,05,44,-3.60
2008,12,23,05,45,-3.60
2008,12,23,05,46,-3.60
2008,12,23,05,47,-3.60
2008,12,23,05,48,-3.60
2008,12,23,05,49,-3.70
2008,12,23,05,50,-3.70
2008,12,23,05,51,-3.80
2008,12,23,05,52,-3.80
2008,12,23,05,53,-3.80
2008,12,23,05,54,-3.80
2008,12,23,05,55,-3.80
2008,12,23,05,56,-3.80
2008,12,23,05,57,-3.90
2008,12,23,05,58,-3.90
2008,12,23,05,59,-3.90
2008,12,23,06,00,-3.90
2008,12,23,06,01,-4.00
2008,12,23,06,02,-4.00
2008,12,23,06,03,-4.00
2008,12,23,06,04,-4.10
2008,12,23,06,05,-4.10
2008,12,23,06,06,-4.10
2008,12,23,06,07,-4.10
2008,12,23,06,08,-4.10
2008,12,23,06,09,-4.10
2008,12,23,06,10,-4.10
2008,12,23,06,11,-4.10
2008,12,23,06,12,-4.10
2008,12,23,06,13,-4.10
2008,12,23,06,14,-4.10
2008,12,23,06,15,-4.10
2008,12,23,06,16,-4.00
2008,12,23,06,17,-4.00
2008,12,23,06,18,-4.00
2008,12,23,06,19,-4.00
2008,12,23,06,20,-4.00
2008,12,23,06,21,-4.00
2008,12,23,06,22,-4.00
2008,12,23,06,23,-4.00
2008,12,23,06,24,-4.00
2008,12,23,06,25,-4.00
2008,12,23,06,26,-4.00
2008,12,23,06,27,-4.00
2008,12,23,06,28,-4.10
2008,12,23,06,29,-4.10
2008,12,23,06,30,-4.10
2008,12,23,06,31,-4.00
2008,12,23,06,32,-4.00
2008,12,23,06,33,-4.00
2008,12,23,06,34,-4.00
2008,12,23,06,35,-4.00
2008,12,23,06,36,-4.00
2008,12,23,06,37,-3.90
2008,12,23,06,38,-3.90
2008,12,23,06,39,-3.90
2008,12,23,06,40,-3.90
2008,12,23,06,41,-3.90
2008,12,23,06,42,-3.80
2008,12,23,06,43,-3.80
2008,12,23,06,44,-3.80
2008,12,23,06,45,-3.80
2008,12,23,06,46,-3.80
2008,12,23,06,47,-3.80
2008,12,23,06,48,-3.80
2008,12,23,06,49,-3.80
2008,12,23,06,50,-3.70
2008,12,23,06,51,-3.70
2008,12,23,06,52,-3.60
2008,12,23,06,53,-3.60
2008,12,23,06,54,-3.60
2008,12,23,06,55,-3.60
2008,12,23,06,56,-3.60
2008,12,23,06,57,-3.50
2008,12,23,06,58,-3.50
2008,12,23,06,59,-3.50
2008,12,23,07,00,-3.50
2008,12,23,07,01,-3.50
2008,12,23,07,02,-3.50
2008,12,23,07,03,-3.50
2008,12,23,07,04,-3.50
2008,12,23,07,05,-3.50
2008,12,23,07,06,-3.50
2008,12,23,07,07,-3.50
2008,12,23,07,08,-3.50
2008,12,23,07,09,-3.50
2008,12,23,07,10,-3.50
2008,12,23,07,11,-3.50
2008,12,23,07,12,-3.50
2008,12,23,07,13,-3.50
2008,12,23,07,14,-3.50
2008,12,23,07,15,-3.40
2008,12,23,07,16,-3.40
2008,12,23,07,17,-3.40
2008,12,23,07,18,-3.40
2008,12,23,07,19,-3.40
2008,12,23,07,20,-3.40
2008,12,23,07,21,-3.40
2008,12,23,07,22,-3.40
2008,12,23,07,23,-3.40
2008,12,23,07,24,-3.40
2008,12,23,07,25,-3.40
2008,12,23,07,26,-3.40
2008,12,23,07,27,-3.40
2008,12,23,07,28,-3.40
2008,12,23,07,29,-3.40
2008,12,23,07,30,-3.40
2008,12,23,07,31,-3.40
2008,12,23,07,32,-3.40
2008,12,23,07,33,-3.30
2008,12,23,07,34,-3.30
2008,12,23,07,35,-3.30
2008,12,23,07,36,-3.30
2008,12,23,07,37,-3.30
2008,12,23,07,38,-3.30
2008,12,23,07,39,-3.30
2008,12,23,07,40,-3.30
2008,12,23,07,41,-3.30
2008,12,23,07,42,-3.30
2008,12,23,07,43,-3.30
2008,12,23,07,44,-3.30
2008,12,23,07,45,-3.30
2008,12,23,07,46,-3.30
2008,12,23,07,47,-3.30
2008,12,23,07,48,-3.30
2008,12,23,07,49,-3.30
2008,12,23,07,50,-3.30
2008,12,23,07,51,-3.30
2008,12,23,07,52,-3.30
2008,12,23,07,53,-3.30
2008,12,23,07,54,-3.30
2008,12,23,07,55,-3.30
2008,12,23,07,56,-3.30
2008,12,23,07,57,-3.30
2008,12,23,07,58,-3.30
2008,12,23,07,59,-3.30
2008,12,23,08,00,-3.30
2008,12,23,08,01,-3.30
2008,12,23,08,02,-3.20
2008,12,23,08,03,-3.20
2008,12,23,08,04,-3.20
2008,12,23,08,05,-3.20
2008,12,23,08,06,-3.20
2008,12,23,08,07,-3.20
2008,12,23,08,08,-3.20
2008,12,23,08,09,-3.20
2008,12,23,08,10,-3.20
2008,12,23,08,11,-3.10
2008,12,23,08,12,-3.10
2008,12,23,08,13,-3.10
2008,12,23,08,14,-3.10
2008,12,23,08,15,-3.10
2008,12,23,08,16,-3.10
2008,12,23,08,17,-3.00
2008,12,23,08,18,-3.00
2008,12,23,08,19,-2.90
2008,12,23,08,20,-2.90
2008,12,23,08,21,-2.80
2008,12,23,08,22,-2.80
2008,12,23,08,23,-2.80
2008,12,23,08,24,-2.80
2008,12,23,08,25,-2.80
2008,12,23,08,26,-2.80
2008,12,23,08,27,-2.80
2008,12,23,08,28,-2.80
2008,12,23,08,29,-2.80
2008,12,23,08,30,-2.80
2008,12,23,08,31,-2.80
2008,12,23,08,32,-2.80
2008,12,23,08,33,-2.80
2008,12,23,08,34,-2.70
2008,12,23,08,35,-2.70
2008,12,23,08,36,-2.70
2008,12,23,08,37,-2.70
2008,12,23,08,38,-2.70
2008,12,23,08,39,-2.70
2008,12,23,08,40,-2.70
2008,12,23,08,41,-2.70
2008,12,23,08,42,-2.70
2008,12,23,08,43,-2.70
2008,12,23,08,44,-2.60
2008,12,23,08,45,-2.60
2008,12,23,08,46,-2.60
2008,12,23,08,47,-2.50
2008,12,23,08,48,-2.50
2008,12,23,08,49,-2.40
2008,12,23,08,50,-2.40
2008,12,23,08,51,-2.40
2008,12,23,08,52,-2.30
2008,12,23,08,53,-2.30
2008,12,23,08,54,-2.30
2008,12,23,08,55,-2.30
2008,12,23,08,56,-2.30
2008,12,23,08,57,-2.30
2008,12,23,08,58,-2.30
2008,12,23,08,59,-2.30
2008,12,23,09,00,-2.30
2008,12,23,09,01,-2.30
2008,12,23,09,02,-2.30
2008,12,23,09,03,-2.20
2008,12,23,09,04,-2.20
2008,12,23,09,05,-2.20
2008,12,23,09,06,-2.20
2008,12,23,09,07,-2.20
2008,12,23,09,08,-2.20
2008,12,23,09,09,-2.20
2008,12,23,09,10,-2.20
2008,12,23,09,11,-2.20
2008,12,23,09,12,-2.10
2008,12,23,09,13,-2.10
2008,12,23,09,14,-2.10
2008,12,23,09,15,-2.10
2008,12,23,09,16,-2.10
2008,12,23,09,17,-2.10
2008,12,23,09,18,-2.10
2008,12,23,09,19,-2.10
2008,12,23,09,20,-2.10
2008,12,23,09,21,-2.10
2008,12,23,09,22,-2.10
2008,12,23,09,23,-2.10
2008,12,23,09,24,-2.10
2008,12,23,09,25,-2.10
2008,12,23,09,26,-2.00
2008,12,23,09,27,-2.00
2008,12,23,09,28,-2.00
2008,12,23,09,29,-1.90
2008,12,23,09,30,-1.90
2008,12,23,09,31,-1.90
2008,12,23,09,32,-1.90
2008,12,23,09,33,-1.90
2008,12,23,09,34,-1.90
2008,12,23,09,35,-1.90
2008,12,23,09,36,-1.80
2008,12,23,09,37,-1.80
2008,12,23,09,38,-1.80
2008,12,23,09,39,-1.80
2008,12,23,09,40,-1.80
2008,12,23,09,41,-1.80
2008,12,23,09,42,-1.70
2008,12,23,09,43,-1.70
2008,12,23,09,44,-1.70
2008,12,23,09,45,-1.70
2008,12,23,09,46,-1.70
2008,12,23,09,47,-1.70
2008,12,23,09,48,-1.70
2008,12,23,09,49,-1.70
2008,12,23,09,50,-1.60
2008,12,23,09,51,-1.60
2008,12,23,09,52,-1.60
2008,12,23,09,53,-1.60
2008,12,23,09,54,-1.60
2008,12,23,09,55,-1.60
2008,12,23,09,56,-1.60
2008,12,23,09,57,-1.60
2008,12,23,09,58,-1.60
2008,12,23,09,59,-1.60
2008,12,23,10,00,-1.50
2008,12,23,10,01,-1.50
2008,12,23,10,02,-1.50
2008,12,23,10,03,-1.40
2008,12,23,10,04,-1.40
2008,12,23,10,05,-1.40
2008,12,23,10,06,-1.40
2008,12,23,10,07,-1.40
2008,12,23,10,08,-1.40
2008,12,23,10,09,-1.40
2008,12,23,10,10,-1.30
2008,12,23,10,11,-1.30
2008,12,23,10,12,-1.30
2008,12,23,10,13,-1.30
2008,12,23,10,14,-1.30
2008,12,23,10,15,-1.30
2008,12,23,10,16,-1.30
2008,12,23,10,17,-1.30
2008,12,23,10,18,-1.30
2008,12,23,10,19,-1.30
2008,12,23,10,20,-1.30
2008,12,23,10,21,-1.30
2008,12,23,10,22,-1.20
2008,12,23,10,23,-1.30
2008,12,23,10,24,-1.30
2008,12,23,10,25,-1.30
2008,12,23,10,26,-1.20
2008,12,23,10,27,-1.20
2008,12,23,10,28,-1.20
2008,12,23,10,29,-1.20
2008,12,23,10,30,-1.20
2008,12,23,10,31,-1.20
2008,12,23,10,32,-1.20
2008,12,23,10,33,-1.20
2008,12,23,10,34,-1.20
2008,12,23,10,35,-1.20
2008,12,23,10,36,-1.20
2008,12,23,10,37,-1.20
2008,12,23,10,38,-1.20
2008,12,23,10,39,-1.20
2008,12,23,10,40,-1.20
2008,12,23,10,41,-1.20
2008,12,23,10,42,-1.20
2008,12,23,10,43,-1.20
2008,12,23,10,44,-1.20
2008,12,23,10,45,-1.20
2008,12,23,10,46,-1.20
2008,12,23,10,47,-1.20
2008,12,23,10,48,-1.20
2008,12,23,10,49,-1.20
2008,12,23,10,50,-1.10
2008,12,23,10,51,-1.10
2008,12,23,10,52,-1.10
2008,12,23,10,53,-1.10
2008,12,23,10,54,-1.10
2008,12,23,10,55,-1.10
2008,12,23,10,56,-1.10
2008,12,23,10,57,-1.10
2008,12,23,10,58,-1.10
2008,12,23,10,59,-1.10
2008,12,23,11,00,-1.10
2008,12,23,11,01,-1.00
2008,12,23,11,02,-1.00
2008,12,23,11,03,-1.00
2008,12,23,11,04,-1.00
2008,12,23,11,05,-1.00
2008,12,23,11,06,-0.90
2008,12,23,11,07,-0.90
2008,12,23,11,08,-0.90
2008,12,23,11,09,-0.90
2008,12,23,11,10,-0.90
2008,12,23,11,11,-0.90
2008,12,23,11,12,-0.90
2008,12,23,11,13,-0.90
2008,12,23,11,14,-0.90
2008,12,23,11,15,-0.90
2008,12,23,11,16,-0.90
2008,12,23,11,17,-0.90
2008,12,23,11,18,-0.90
2008,12,23,11,19,-0.90
2008,12,23,11,20,-0.90
2008,12,23,11,21,-0.80
2008,12,23,11,22,-0.80
2008,12,23,11,23,-0.80
2008,12,23,11,24,-0.80
2008,12,23,11,25,-0.80
2008,12,23,11,26,-0.80
2008,12,23,11,27,-0.90
2008,12,23,11,28,-0.90
2008,12,23,11,29,-0.90
2008,12,23,11,30,-0.90
2008,12,23,11,31,-0.90
2008,12,23,11,32,-0.90
2008,12,23,11,33,-0.90
2008,12,23,11,34,-0.90
2008,12,23,11,35,-0.90
2008,12,23,11,36,-0.90
2008,12,23,11,37,-0.90
2008,12,23,11,38,-0.90
2008,12,23,11,39,-0.90
2008,12,23,11,40,-0.90
2008,12,23,11,41,-0.90
2008,12,23,11,42,-0.90
2008,12,23,11,43,-0.90
2008,12,23,11,44,-0.90
2008,12,23,11,45,-0.90
2008,12,23,11,46,-0.80
2008,12,23,11,47,-0.80
2008,12,23,11,48,-0.80
2008,12,23,11,49,-0.80
2008,12,23,11,50,-0.80
2008,12,23,11,51,-0.80
2008,12,23,11,52,-0.80
2008,12,23,11,53,-0.80
2008,12,23,11,54,-0.80
2008,12,23,11,55,-0.80
2008,12,23,11,56,-0.80
2008,12,23,11,57,-0.80
2008,12,23,11,58,-0.80
2008,12,23,11,59,-0.80
2008,12,23,12,00,-0.80
2008,12,23,12,01,-0.80
2008,12,23,12,02,-0.80
2008,12,23,12,03,-0.80
2008,12,23,12,04,-0.80
2008,12,23,12,05,-0.80
2008,12,23,12,06,-0.80
2008,12,23,12,07,-0.80
2008,12,23,12,08,-0.80
2008,12,23,12,09,-0.80
2008,12,23,12,10,-0.80
2008,12,23,12,11,-0.80
2008,12,23,12,12,-0.80
2008,12,23,12,13,-0.80
2008,12,23,12,14,-0.80
2008,12,23,12,15,-0.80
2008,12,23,12,16,-0.80
2008,12,23,12,17,-0.80
2008,12,23,12,18,-0.80
2008,12,23,12,19,-0.80
2008,12,23,12,20,-0.80
2008,12,23,12,21,-0.80
2008,12,23,12,22,-0.80
2008,12,23,12,23,-0.80
2008,12,23,12,24,-0.80
2008,12,23,12,25,-0.80
2008,12,23,12,26,-0.80
2008,12,23,12,27,-0.80
2008,12,23,12,28,-0.80
2008,12,23,12,29,-0.80
2008,12,23,12,30,-0.80
2008,12,23,12,31,-0.80
2008,12,23,12,32,-0.80
2008,12,23,12,33,-0.70
2008,12,23,12,34,-0.70
2008,12,23,12,35,-0.70
2008,12,23,12,36,-0.70
2008,12,23,12,37,-0.70
2008,12,23,12,38,-0.70
2008,12,23,12,39,-0.70
2008,12,23,12,40,-0.70
2008,12,23,12,41,-0.70
2008,12,23,12,42,-0.70
2008,12,23,12,43,-0.70
2008,12,23,12,44,-0.70
2008,12,23,12,45,-0.70
2008,12,23,12,46,-0.70
2008,12,23,12,47,-0.70
2008,12,23,12,48,-0.70
2008,12,23,12,49,-0.70
2008,12,23,12,50,-0.70
2008,12,23,12,51,-0.70
2008,12,23,12,52,-0.70
2008,12,23,12,53,-0.70
2008,12,23,12,54,-0.70
2008,12,23,12,55,-0.70
2008,12,23,12,56,-0.70
2008,12,23,12,57,-0.70
2008,12,23,12,58,-0.70
2008,12,23,12,59,-0.70
2008,12,23,13,00,-0.70
2008,12,23,13,01,-0.70
2008,12,23,13,02,-0.60
2008,12,23,13,03,-0.60
2008,12,23,13,04,-0.70
2008,12,23,13,05,-0.70
2008,12,23,13,06,-0.70
2008,12,23,13,07,-0.70
2008,12,23,13,08,-0.70
2008,12,23,13,09,-0.70
2008,12,23,13,10,-0.70
2008,12,23,13,11,-0.70
2008,12,23,13,12,-0.70
2008,12,23,13,13,-0.70
2008,12,23,13,14,-0.70
2008,12,23,13,15,-0.70
2008,12,23,13,16,-0.70
2008,12,23,13,17,-0.70
2008,12,23,13,18,-0.70
2008,12,23,13,19,-0.70
2008,12,23,13,20,-0.70
2008,12,23,13,21,-0.70
2008,12,23,13,22,-0.70
2008,12,23,13,23,-0.60
2008,12,23,13,24,-0.60
2008,12,23,13,25,-0.60
2008,12,23,13,26,-0.60
2008,12,23,13,27,-0.60
2008,12,23,13,28,-0.60
2008,12,23,13,29,-0.60
2008,12,23,13,30,-0.60
2008,12,23,13,31,-0.60
2008,12,23,13,32,-0.60
2008,12,23,13,33,-0.60
2008,12,23,13,34,-0.50
2008,12,23,13,35,-0.50
2008,12,23,13,36,-0.50
2008,12,23,13,37,-0.50
2008,12,23,13,38,-0.50
2008,12,23,13,39,-0.40
2008,12,23,13,40,-0.40
2008,12,23,13,41,-0.40
2008,12,23,13,42,-0.40
2008,12,23,13,43,-0.40
2008,12,23,13,44,-0.40
2008,12,23,13,45,-0.40
2008,12,23,13,46,-0.40
2008,12,23,13,47,-0.40
2008,12,23,13,48,-0.40
2008,12,23,13,49,-0.50
2008,12,23,13,50,-0.50
2008,12,23,13,51,-0.50
2008,12,23,13,52,-0.50
2008,12,23,13,53,-0.50
2008,12,23,13,54,-0.50
2008,12,23,13,55,-0.50
2008,12,23,13,56,-0.50
2008,12,23,13,57,-0.50
2008,12,23,13,58,-0.50
2008,12,23,13,59,-0.40
2008,12,23,14,00,-0.40
2008,12,23,14,01,-0.40
2008,12,23,14,02,-0.40
2008,12,23,14,03,-0.30
2008,12,23,14,04,-0.30
2008,12,23,14,05,-0.30
2008,12,23,14,06,-0.30
2008,12,23,14,07,-0.30
2008,12,23,14,08,-0.30
2008,12,23,14,09,-0.30
2008,12,23,14,10,-0.30
2008,12,23,14,11,-0.30
2008,12,23,14,12,-0.30
2008,12,23,14,13,-0.20
2008,12,23,14,14,-0.20
2008,12,23,14,15,-0.20
2008,12,23,14,16,-0.20
2008,12,23,14,17,-0.20
2008,12,23,14,18,-0.20
2008,12,23,14,19,-0.20
2008,12,23,14,20,-0.20
2008,12,23,14,21,-0.20
2008,12,23,14,22,-0.20
2008,12,23,14,23,-0.20
2008,12,23,14,24,-0.20
2008,12,23,14,25,-0.20
2008,12,23,14,26,-0.20
2008,12,23,14,27,-0.20
2008,12,23,14,28,-0.20
2008,12,23,14,29,-0.20
2008,12,23,14,30,-0.20
2008,12,23,14,31,-0.20
2008,12,23,14,32,-0.20
2008,12,23,14,33,-0.20
2008,12,23,14,34,-0.20
2008,12,23,14,35,-0.20
2008,12,23,14,36,-0.20
2008,12,23,14,37,-0.20
2008,12,23,14,38,-0.20
2008,12,23,14,39,-0.10
2008,12,23,14,40,-0.10
2008,12,23,14,41,-0.10
2008,12,23,14,42,-0.10
2008,12,23,14,43,-0.10
2008,12,23,14,44,-0.10
2008,12,23,14,45,-0.10
2008,12,23,14,46,-0.10
2008,12,23,14,47,-0.10
2008,12,23,14,48,-0.10
2008,12,23,14,49,-0.10
2008,12,23,14,50,-0.10
2008,12,23,14,51,-0.10
2008,12,23,14,52,-0.10
2008,12,23,14,53,-0.10
2008,12,23,14,54,-0.10
2008,12,23,14,55,-0.10
2008,12,23,14,56,-0.10
2008,12,23,14,57,-0.10
2008,12,23,14,58,-0.10
2008,12,23,14,59,-0.10
2008,12,23,15,00,-0.10
2008,12,23,15,01,-0.10
2008,12,23,15,02,-0.10
2008,12,23,15,03,-0.10
2008,12,23,15,04,0.00
2008,12,23,15,05,0.00
2008,12,23,15,06,0.00
2008,12,23,15,07,0.00
2008,12,23,15,08,0.00
2008,12,23,15,09,0.00
2008,12,23,15,10,0.00
2008,12,23,15,11,0.00
2008,12,23,15,12,0.00
2008,12,23,15,13,0.00
2008,12,23,15,14,0.00
2008,12,23,15,15,0.00
2008,12,23,15,16,0.00
2008,12,23,15,17,0.00
2008,12,23,15,18,0.00
2008,12,23,15,19,0.00
2008,12,23,15,20,0.00
2008,12,23,15,21,0.00
2008,12,23,15,22,0.00
2008,12,23,15,23,0.10
2008,12,23,15,24,0.10
2008,12,23,15,25,0.10
2008,12,23,15,26,0.10
2008,12,23,15,27,0.10
2008,12,23,15,28,0.10
2008,12,23,15,29,0.10
2008,12,23,15,30,0.20
2008,12,23,15,31,0.20
2008,12,23,15,32,0.20
2008,12,23,15,33,0.20
2008,12,23,15,34,0.20
2008,12,23,15,35,0.30
2008,12,23,15,36,0.30
2008,12,23,15,37,0.30
2008,12,23,15,38,0.30
2008,12,23,15,39,0.30
2008,12,23,15,40,0.30
2008,12,23,15,41,0.30
2008,12,23,15,42,0.30
2008,12,23,15,43,0.30
2008,12,23,15,44,0.20
2008,12,23,15,45,0.20
2008,12,23,15,46,0.20
2008,12,23,15,47,0.20
2008,12,23,15,48,0.20
2008,12,23,15,49,0.20
2008,12,23,15,50,0.20
2008,12,23,15,51,0.20
2008,12,23,15,52,0.20
2008,12,23,15,53,0.10
2008,12,23,15,54,0.10
2008,12,23,15,55,0.10
2008,12,23,15,56,0.10
2008,12,23,15,57,0.10
2008,12,23,15,58,0.10
2008,12,23,15,59,0.10
2008,12,23,16,00,0.10
2008,12,23,16,01,0.10
2008,12,23,16,02,0.10
2008,12,23,16,03,0.10
2008,12,23,16,04,0.10
2008,12,23,16,05,0.10
2008,12,23,16,06,0.10
2008,12,23,16,07,0.10
2008,12,23,16,08,0.10
2008,12,23,16,09,0.10
2008,12,23,16,10,0.20
2008,12,23,16,11,0.20
2008,12,23,16,12,0.20
2008,12,23,16,13,0.20
2008,12,23,16,14,0.20
2008,12,23,16,15,0.20
2008,12,23,16,16,0.20
2008,12,23,16,17,0.20
2008,12,23,16,18,0.20
2008,12,23,16,19,0.20
2008,12,23,16,20,0.20
2008,12,23,16,21,0.20
2008,12,23,16,22,0.20
2008,12,23,16,23,0.20
2008,12,23,16,24,0.20
2008,12,23,16,25,0.20
2008,12,23,16,26,0.20
2008,12,23,16,27,0.20
2008,12,23,16,28,0.20
2008,12,23,16,29,0.20
2008,12,23,16,30,0.20
2008,12,23,16,31,0.20
2008,12,23,16,32,0.20
2008,12,23,16,33,0.20
2008,12,23,16,34,0.20
2008,12,23,16,35,0.20
2008,12,23,16,36,0.20
2008,12,23,16,37,0.10
2008,12,23,16,38,0.10
2008,12,23,16,39,0.10
2008,12,23,16,40,0.10
2008,12,23,16,41,0.10
2008,12,23,16,42,0.10
2008,12,23,16,43,0.10
2008,12,23,16,44,0.10
2008,12,23,16,45,0.10
2008,12,23,16,46,0.10
2008,12,23,16,47,0.10
2008,12,23,16,48,0.10
2008,12,23,16,49,0.10
2008,12,23,16,50,0.10
2008,12,23,16,51,0.10
2008,12,23,16,52,0.10
2008,12,23,16,53,0.10
2008,12,23,16,54,0.00
2008,12,23,16,55,0.00
2008,12,23,16,56,0.00
2008,12,23,16,57,0.00
2008,12,23,16,58,0.00
2008,12,23,16,59,0.00
2008,12,23,17,00,0.00
2008,12,23,17,01,0.00
2008,12,23,17,02,0.00
2008,12,23,17,03,0.00
2008,12,23,17,04,0.00
2008,12,23,17,05,0.00
2008,12,23,17,06,0.00
2008,12,23,17,07,0.00
2008,12,23,17,08,0.00
2008,12,23,17,09,0.00
2008,12,23,17,10,0.00
2008,12,23,17,11,0.00
2008,12,23,17,12,-0.10
2008,12,23,17,13,-0.10
2008,12,23,17,14,-0.10
2008,12,23,17,15,-0.10
2008,12,23,17,16,-0.10
2008,12,23,17,17,-0.10
2008,12,23,17,18,-0.10
2008,12,23,17,19,-0.10
2008,12,23,17,20,-0.20
2008,12,23,17,21,-0.20
2008,12,23,17,22,-0.20
2008,12,23,17,23,-0.20
2008,12,23,17,24,-0.10
2008,12,23,17,25,-0.10